Location: Unspecified
(0.0000°N, 0.0000°E)
Time: 11:20:18
(UTC+00:00)

Explorer 11/Cluster Stage 4 - Pass Details

Date: 27 November 2019
Orbit: 467 x 1259 km, 28.8° (Epoch: 07 December)

Event Time Altitude Azimuth Distance (km) Brightness Sun altitude
Rises 22:03:32 0° 322° (NW) 3,292 - -56.9°
Reaches altitude 10° 22:06:12 10° 335° (NNW) 2,495 - -57.4°
Maximum altitude 22:11:22 28° 32° (NNE) 1,756 - -58.3°
Drops below altitude 10° 22:17:25 10° 88° (E) 2,973 - -59.4°
Sets 22:20:53 0° 99° (E) 4,040 - -60.0°
